Change the Weather History Date:

Saturday, March 29, 2014

  Actual Average (KTTN) Record (KTTN)
Temperature  
Mean Temperature 48 °F 45 °F  
Max Temperature 52 °F 55 °F 86 °F (1945)
Min Temperature 44 °F 36 °F 11 °F (1923)
Degree Days  
Heating Degree Days 16 20  
Month to date heating degree days 694  
Since 1 July heating degree days 4508  
Cooling Degree Days 0 0  
Month to date cooling degree days 0  
Year to date cooling degree days 0  
Moisture  
Dew Point 44 °F    
Average Humidity 93    
Maximum Humidity 100    
Minimum Humidity 77    
Precipitation  
Precipitation 1.35 in 0.15 in 1.90 in (1984)
Month to date precipitation 3.83  
Year to date precipitation 9.30  
Sea Level Pressure  
Sea Level Pressure 30.00 in    
Wind  
Wind Speed 5 mph (NE)    
Max Wind Speed 9 mph    
Max Gust Speed 16 mph    
Visibility 8 miles    
Events Rain    
T = Trace of Precipitation, MM = Missing Value Source: NWS Daily Summary

Daily Weather History Graph

Daily Weather History Graph

Search for Another Location

Airport or City:

Trip Planner

Search our weather history database for the weather conditions in past years. The results will help you decide how hot, cold, wet, or windy it might be!

Date:

Astronomy

Mar. 29, 2014 Rise Set
Actual Time 6:49 AM EDT 7:21 PM EDT
Civil Twilight 6:21 AM EDT 7:49 PM EDT
Nautical Twilight 5:49 AM EDT 8:21 PM EDT
Astronomical Twilight 5:16 AM EDT 8:54 PM EDT
Moon 5:56 AM EDT (3/29) 6:24 PM EDT (3/29)
Length of Visible Light 13h 27m
Length of Day
12h 32m
Waning Crescent, 2% of the Moon is Illuminated
Mar 29
Waning Crescent
Mar 30
New
Apr 7
First Quarter
Apr 15
Full
Apr 22
Last Quarter

Hourly Weather History & Observations

Time (EDT) Temp. Windchill Dew Point Humidity Pressure Visibility Wind Dir Wind Speed Gust Speed Precip Events Conditions
12:54 AM 53.1 °F - 48.9 °F 86% 30.11 in 10.0 mi North 4.6 mph - N/A   Clear
1:54 AM 48.0 °F - 46.9 °F 96% 30.11 in 10.0 mi Calm Calm - N/A   Clear
2:54 AM 50.0 °F - 48.0 °F 93% 30.11 in 10.0 mi Calm Calm - N/A   Clear
3:54 AM 48.9 °F - 46.9 °F 93% 30.09 in 10.0 mi North 6.9 mph - N/A   Clear
4:54 AM 48.0 °F - 45.0 °F 89% 30.10 in 10.0 mi NNE 5.8 mph - N/A   Scattered Clouds
5:54 AM 48.0 °F - 42.1 °F 80% 30.12 in 10.0 mi NE 6.9 mph - N/A   Overcast
6:54 AM 46.9 °F - 42.1 °F 83% 30.14 in 10.0 mi NE 4.6 mph - N/A   Overcast
7:54 AM 46.9 °F - 39.9 °F 77% 30.15 in 10.0 mi NE 8.1 mph - N/A   Overcast
8:08 AM 46.9 °F - 39.9 °F 77% 30.13 in 10.0 mi NE 6.9 mph - N/A   Overcast
8:54 AM 46.9 °F - 39.9 °F 77% 30.14 in 10.0 mi NE 6.9 mph - N/A   Overcast
9:54 AM 46.9 °F - 41.0 °F 80% 30.14 in 10.0 mi Variable 6.9 mph - 0.00 in   Overcast
10:54 AM 46.0 °F 43.9 °F 43.0 °F 89% 30.13 in 10.0 mi Variable 4.6 mph - 0.04 in Rain Light Rain
11:44 AM 46.0 °F 44.8 °F 45.0 °F 96% 30.10 in 10.0 mi Variable 3.5 mph - 0.02 in Rain Light Rain
11:54 AM 46.0 °F 43.9 °F 45.0 °F 96% 30.11 in 9.0 mi Variable 4.6 mph - 0.03 in Rain Light Rain
12:32 PM 46.0 °F 43.1 °F 45.0 °F 96% 30.08 in 7.0 mi ENE 5.8 mph - 0.01 in Rain Light Rain
12:54 PM 46.0 °F 43.9 °F 45.0 °F 96% 30.08 in 6.0 mi Variable 4.6 mph - 0.02 in Rain Light Rain
1:20 PM 46.0 °F 44.8 °F 45.0 °F 96% 30.06 in 2.5 mi Variable 3.5 mph - 0.03 in Rain Light Rain
1:27 PM 45.0 °F - 45.0 °F 100% 30.06 in 3.0 mi Calm Calm - 0.04 in Rain Light Rain
1:54 PM 45.0 °F 43.5 °F 45.0 °F 100% 30.05 in 4.0 mi Variable 3.5 mph - 0.07 in Rain Light Rain
2:54 PM 45.0 °F 41.2 °F 45.0 °F 100% 30.00 in 3.0 mi Variable 6.9 mph - 0.17 in Rain Rain
3:54 PM 45.0 °F 41.8 °F 45.0 °F 100% 29.95 in 5.0 mi Variable 5.8 mph - 0.12 in Rain Rain
4:54 PM 45.0 °F - 45.0 °F 100% 29.91 in 8.0 mi North - - 0.10 in Rain Light Rain
5:54 PM 45.0 °F - 45.0 °F 100% 29.89 in 8.0 mi Calm Calm - 0.03 in Rain Light Rain
6:54 PM 45.0 °F 41.8 °F 45.0 °F 100% 29.86 in 9.0 mi Variable 5.8 mph - 0.03 in Rain Light Rain
7:54 PM 45.0 °F 41.8 °F 45.0 °F 100% 29.82 in 8.0 mi ENE 5.8 mph - 0.07 in Rain Rain
8:54 PM 45.0 °F 40.1 °F 45.0 °F 100% 29.79 in 4.0 mi ENE 9.2 mph - 0.19 in Rain Heavy Rain
9:54 PM 44.1 °F 40.1 °F - N/A% 29.73 in 5.0 mi Variable 6.9 mph - 0.25 in Rain Rain
10:33 PM 44.1 °F 40.1 °F - N/A% 29.69 in 4.0 mi ENE 6.9 mph - 0.05 in Rain Light Rain
10:54 PM 44.1 °F 40.1 °F - N/A% 29.67 in 6.0 mi Variable 6.9 mph - 0.07 in Rain Light Rain
11:54 PM 44.1 °F 39.5 °F 44.1 °F 100% 29.63 in 9.0 mi NE 8.1 mph 16.1 mph 0.16 in Rain Light Rain